iso_date,epoch_date,Year,Hour,Min,DOY,POS_DOY,Lat,Lon,BP,Ts,Ta,has_bp,has_ts,has_ta,BuoyID,Buoy_Type,Buoy_Owner,Logistics,Hemisphere
2019-10-20T19:51:27Z,1571601087,2019,19,51,293.8274,293.8274,85.05323,132.70851,1009.9,-10.39,-9.31,yes,yes,yes,300434063382860,SIMB3,Dart,MOSAiC,North
2019-10-20T23:01:14Z,1571612475,2019,23,1,293.9592,293.9592,85.07826,132.68278,1010.8,-2.08,-8.56,yes,yes,yes,300434063382860,SIMB3,Dart,MOSAiC,North
2019-10-21T03:01:00Z,1571626860,2019,3,1,294.1257,294.1257,85.10134,132.63512,1011.6,-2.08,-9.56,yes,yes,yes,300434063382860,SIMB3,Dart,MOSAiC,North
2019-10-21T07:01:29Z,1571641289,2019,7,1,294.2927,294.2927,85.12415,132.45506,1011.9,-2.08,-8.75,yes,yes,yes,300434063382860,SIMB3,Dart,MOSAiC,North
2019-10-21T11:01:32Z,1571655692,2019,11,1,294.4594,294.4594,85.15357,132.26657,1012.0,-2.08,-8.25,yes,yes,yes,300434063382860,SIMB3,Dart,MOSAiC,North
2019-10-21T15:01:00Z,1571670060,2019,15,0,294.6257,294.6257,85.17618,132.0983,1012.0,-2.08,-7.75,yes,yes,yes,300434063382860,SIMB3,Dart,MOSAiC,North
2019-10-21T19:01:46Z,1571684507,2019,19,1,294.7929,294.7929,85.2017,131.85835,1012.5,-2.08,-6.5,yes,yes,yes,300434063382860,SIMB3,Dart,MOSAiC,North
2019-10-21T23:01:40Z,1571698901,2019,23,1,294.9595,294.9595,85.23367,131.63519,1013.0,-2.08,-6.25,yes,yes,yes,300434063382860,SIMB3,Dart,MOSAiC,North
2019-10-22T03:01:35Z,1571713295,2019,3,1,295.1261,295.1261,85.25841,131.41156,1013.6,-2.08,-7.25,yes,yes,yes,300434063382860,SIMB3,Dart,MOSAiC,North
2019-10-22T07:01:29Z,1571727689,2019,7,1,295.2927,295.2927,85.27646,131.12729,1013.3,-2.08,-8.5,yes,yes,yes,300434063382860,SIMB3,Dart,MOSAiC,North
2019-10-22T11:00:40Z,1571742040,2019,11,0,295.4588,295.4588,85.29385,130.84941,1012.4,-2.05,-8.88,yes,yes,yes,300434063382860,SIMB3,Dart,MOSAiC,North
2019-10-22T15:01:17Z,1571756478,2019,15,1,295.6259,295.6259,85.30867,130.63182,1012.7,-2.08,-7.88,yes,yes,yes,300434063382860,SIMB3,Dart,MOSAiC,North
2019-10-22T19:01:12Z,1571770872,2019,19,1,295.7925,295.7925,85.3215,130.39622,1012.9,-2.08,-8.25,yes,yes,yes,300434063382860,SIMB3,Dart,MOSAiC,North
2019-10-22T23:02:24Z,1571785344,2019,23,2,295.96,295.96,85.33491,130.15941,1013.4,-2.08,-9.31,yes,yes,yes,300434063382860,SIMB3,Dart,MOSAiC,North
2019-10-23T03:01:26Z,1571799686,2019,3,1,296.126,296.126,85.3433,129.96435,1013.7,-2.08,-11.0,yes,yes,yes,300434063382860,SIMB3,Dart,MOSAiC,North
2019-10-23T07:01:46Z,1571814107,2019,7,1,296.2929,296.2929,85.34918,129.78007,1014.2,-2.08,-15.56,yes,yes,yes,300434063382860,SIMB3,Dart,MOSAiC,North
2019-10-23T11:02:41Z,1571828561,2019,11,2,296.4602,296.4602,85.35725,129.64865,1014.0,-2.08,-11.38,yes,yes,yes,300434063382860,SIMB3,Dart,MOSAiC,North
2019-10-23T15:01:26Z,1571842886,2019,15,1,296.626,296.626,85.36353,129.52854,1013.8,-2.08,-12.25,yes,yes,yes,300434063382860,SIMB3,Dart,MOSAiC,North
2019-10-23T19:02:03Z,1571857324,2019,19,2,296.7931,296.7931,85.37103,129.379,1013.3,-2.08,-13.25,yes,yes,yes,300434063382860,SIMB3,Dart,MOSAiC,North
2019-10-23T23:01:23Z,1571871684,2019,23,1,296.9593,296.9593,85.3847,129.22999,1012.8,-2.08,-11.0,yes,yes,yes,300434063382860,SIMB3,Dart,MOSAiC,North
2019-10-24T03:01:26Z,1571886086,2019,3,1,297.126,297.126,85.3967,129.08296,1011.9,-2.08,-11.31,yes,yes,yes,300434063382860,SIMB3,Dart,MOSAiC,North
2019-10-24T07:01:12Z,1571900472,2019,7,1,297.2925,297.2925,85.40594,128.86934,1011.3,-2.08,-12.69,yes,yes,yes,300434063382860,SIMB3,Dart,MOSAiC,North
2019-10-24T11:03:41Z,1571915022,2019,11,3,297.4609,297.4609,85.41865,128.62302,1010.5,-2.05,-12.0,yes,yes,yes,300434063382860,SIMB3,Dart,MOSAiC,North
2019-10-24T15:02:18Z,1571929338,2019,15,2,297.6266,297.6266,85.4289,128.41371,1010.3,-2.08,-15.44,yes,yes,yes,300434063382860,SIMB3,Dart,MOSAiC,North
2019-10-24T19:01:37Z,1571943698,2019,19,1,297.7928,297.7928,85.43504,128.19783,1009.6,-2.08,-14.31,yes,yes,yes,300434063382860,SIMB3,Dart,MOSAiC,North
2019-10-24T23:02:41Z,1571958161,2019,23,2,297.9602,297.9602,85.44252,128.02721,1009.4,-2.08,-15.81,yes,yes,yes,300434063382860,SIMB3,Dart,MOSAiC,North
2019-10-25T03:01:35Z,1571972495,2019,3,1,298.1261,298.1261,85.44546,127.9334,1010.4,-2.08,-19.94,yes,yes,yes,300434063382860,SIMB3,Dart,MOSAiC,North
2019-10-25T07:01:37Z,1571986898,2019,7,1,298.2928,298.2928,85.44676,127.81295,1011.0,-2.08,-22.19,yes,yes,yes,300434063382860,SIMB3,Dart,MOSAiC,North
2019-10-25T11:02:32Z,1572001353,2019,11,2,298.4601,298.4601,85.44951,127.71495,1011.8,-2.08,-20.31,yes,yes,yes,300434063382860,SIMB3,Dart,MOSAiC,North
2019-10-25T15:01:17Z,1572015678,2019,15,1,298.6259,298.6259,85.45074,127.6461,1012.6,-2.08,-18.25,yes,yes,yes,300434063382860,SIMB3,Dart,MOSAiC,North
2019-10-25T19:01:29Z,1572030089,2019,19,1,298.7927,298.7927,85.45078,127.55181,1013.8,-2.08,-20.81,yes,yes,yes,300434063382860,SIMB3,Dart,MOSAiC,North
2019-10-25T23:04:16Z,1572044656,2019,23,4,298.9613,298.9613,85.4523,127.47694,1014.8,-2.08,-21.19,yes,yes,yes,300434063382860,SIMB3,Dart,MOSAiC,North
2019-10-26T03:01:52Z,1572058912,2019,3,1,299.1263,299.1263,85.45385,127.42444,1016.4,-2.08,-20.44,yes,yes,yes,300434063382860,SIMB3,Dart,MOSAiC,North
2019-10-26T07:01:29Z,1572073289,2019,7,1,299.2927,299.2927,85.45544,127.32683,1017.7,-2.08,-23.0,yes,yes,yes,300434063382860,SIMB3,Dart,MOSAiC,North
2019-10-26T11:01:23Z,1572087684,2019,11,1,299.4593,299.4593,85.46003,127.23815,1019.6,-2.08,-24.62,yes,yes,yes,300434063382860,SIMB3,Dart,MOSAiC,North
2019-10-26T15:01:09Z,1572102069,2019,15,1,299.6258,299.6258,85.46446,127.17696,1020.9,-2.08,-23.88,yes,yes,yes,300434063382860,SIMB3,Dart,MOSAiC,North
2019-10-26T19:02:38Z,1572116558,2019,19,2,299.7935,299.7935,85.46987,127.07584,1022.3,-2.08,-24.06,yes,yes,yes,300434063382860,SIMB3,Dart,MOSAiC,North
2019-10-26T23:01:14Z,1572130875,2019,23,1,299.9592,299.9592,85.47884,126.9771,1023.5,-2.08,-24.94,yes,yes,yes,300434063382860,SIMB3,Dart,MOSAiC,North
2019-10-27T03:01:35Z,1572145295,2019,3,1,300.1261,300.1261,85.48804,126.90418,1024.6,-2.08,-25.19,yes,yes,yes,300434063382860,SIMB3,Dart,MOSAiC,North
2019-10-27T07:01:03Z,1572159663,2019,7,1,300.2924,300.2924,85.49734,126.80126,1025.6,-2.08,-24.62,yes,yes,yes,300434063382860,SIMB3,Dart,MOSAiC,North
2019-10-27T11:02:06Z,1572174127,2019,11,2,300.4598,300.4598,85.50929,126.71135,1026.4,-2.08,-24.31,yes,yes,yes,300434063382860,SIMB3,Dart,MOSAiC,North
2019-10-27T15:02:00Z,1572188521,2019,15,2,300.6264,300.6264,85.52254,126.61838,1027.0,-2.08,-23.94,yes,yes,yes,300434063382860,SIMB3,Dart,MOSAiC,North
2019-10-27T19:01:37Z,1572202898,2019,19,1,300.7928,300.7928,85.53703,126.46342,1027.3,-2.08,-19.5,yes,yes,yes,300434063382860,SIMB3,Dart,MOSAiC,North
2019-10-27T23:01:32Z,1572217292,2019,23,1,300.9594,300.9594,85.55475,126.31334,1027.3,-2.08,-14.69,yes,yes,yes,300434063382860,SIMB3,Dart,MOSAiC,North
2019-10-28T03:01:26Z,1572231686,2019,3,1,301.126,301.126,85.57234,126.20741,1028.4,-2.08,-13.31,yes,yes,yes,300434063382860,SIMB3,Dart,MOSAiC,North
2019-10-28T07:01:20Z,1572246081,2019,7,1,301.2926,301.2926,85.58937,126.08102,1029.9,-2.08,-14.19,yes,yes,yes,300434063382860,SIMB3,Dart,MOSAiC,North
2019-10-28T11:01:32Z,1572260492,2019,11,1,301.4594,301.4594,85.60507,125.96738,1030.1,-2.08,-12.06,yes,yes,yes,300434063382860,SIMB3,Dart,MOSAiC,North
2019-10-28T15:01:35Z,1572274895,2019,15,1,301.6261,301.6261,85.61793,125.83998,1030.3,-2.08,-11.88,yes,yes,yes,300434063382860,SIMB3,Dart,MOSAiC,North
2019-10-28T19:01:55Z,1572289315,2019,19,1,301.793,301.793,85.63072,125.6506,1030.3,-2.08,-16.19,yes,yes,yes,300434063382860,SIMB3,Dart,MOSAiC,North
2019-10-29T03:01:09Z,1572318069,2019,3,1,302.1258,302.1258,85.65421,125.33037,1029.7,-2.08,-19.75,yes,yes,yes,300434063382860,SIMB3,Dart,MOSAiC,North
2019-10-29T07:01:12Z,1572332472,2019,7,1,302.2925,302.2925,85.66598,125.12632,1029.4,-2.08,-21.0,yes,yes,yes,300434063382860,SIMB3,Dart,MOSAiC,North
2019-10-29T11:01:23Z,1572346884,2019,11,1,302.4593,302.4593,85.6785,124.96516,1029.4,-2.08,-18.06,yes,yes,yes,300434063382860,SIMB3,Dart,MOSAiC,North
2019-10-29T15:01:26Z,1572361286,2019,15,1,302.626,302.626,85.68789,124.82674,1029.6,-2.08,-19.75,yes,yes,yes,300434063382860,SIMB3,Dart,MOSAiC,North
2019-10-29T19:01:37Z,1572375698,2019,19,1,302.7928,302.7928,85.69834,124.65065,1029.6,-2.08,-18.56,yes,yes,yes,300434063382860,SIMB3,Dart,MOSAiC,North
2019-10-29T23:01:23Z,1572390084,2019,23,1,302.9593,302.9593,85.7095,124.50055,1029.6,-2.08,-15.25,yes,yes,yes,300434063382860,SIMB3,Dart,MOSAiC,North
2019-10-30T03:00:43Z,1572404443,2019,3,0,303.1255,303.1255,85.71774,124.36821,1029.8,-2.08,-15.69,yes,yes,yes,300434063382860,SIMB3,Dart,MOSAiC,North
2019-10-30T07:01:20Z,1572418881,2019,7,1,303.2926,303.2926,85.72752,124.1848,1029.4,-2.08,-15.38,yes,yes,yes,300434063382860,SIMB3,Dart,MOSAiC,North
2019-10-30T11:02:32Z,1572433353,2019,11,2,303.4601,303.4601,85.73728,124.05057,1029.7,-2.08,-16.69,yes,yes,yes,300434063382860,SIMB3,Dart,MOSAiC,North
2019-10-30T15:02:18Z,1572447738,2019,15,2,303.6266,303.6266,85.74228,123.91719,1030.3,-2.08,-21.44,yes,yes,yes,300434063382860,SIMB3,Dart,MOSAiC,North
2019-10-30T19:01:46Z,1572462107,2019,19,1,303.7929,303.7929,85.75117,123.74022,1030.1,-2.08,-20.06,yes,yes,yes,300434063382860,SIMB3,Dart,MOSAiC,North
2019-10-30T23:01:58Z,1572476518,2019,23,1,303.9597,303.9597,85.76002,123.60396,1030.7,-2.08,-23.0,yes,yes,yes,300434063382860,SIMB3,Dart,MOSAiC,North
2019-10-31T03:01:35Z,1572490895,2019,3,1,304.1261,304.1261,85.7672,123.49259,1031.0,-2.08,-20.69,yes,yes,yes,300434063382860,SIMB3,Dart,MOSAiC,North
2019-10-31T07:01:37Z,1572505298,2019,7,1,304.2928,304.2928,85.7748,123.34627,1030.8,-2.08,-21.38,yes,yes,yes,300434063382860,SIMB3,Dart,MOSAiC,North
2019-10-31T11:01:14Z,1572519675,2019,11,1,304.4592,304.4592,85.78306,123.23913,1030.5,-2.08,-21.75,yes,yes,yes,300434063382860,SIMB3,Dart,MOSAiC,North
2019-10-31T15:02:26Z,1572534147,2019,15,2,304.6267,304.6267,85.78854,123.13899,1030.3,-2.08,-21.69,yes,yes,yes,300434063382860,SIMB3,Dart,MOSAiC,North
2019-11-01T03:01:09Z,1572577269,2019,3,1,305.1258,305.1258,85.8135,122.83407,1030.2,-2.08,-17.25,yes,yes,yes,300434063382860,SIMB3,Dart,MOSAiC,North
2019-11-01T07:01:37Z,1572591698,2019,7,1,305.2928,305.2928,85.82182,122.75022,1030.8,-2.08,-17.69,yes,yes,yes,300434063382860,SIMB3,Dart,MOSAiC,North
2019-11-01T11:01:32Z,1572606092,2019,11,1,305.4594,305.4594,85.83006,122.70757,1031.3,-2.08,-18.0,yes,yes,yes,300434063382860,SIMB3,Dart,MOSAiC,North
2019-11-01T15:01:17Z,1572620478,2019,15,1,305.6259,305.6259,85.8339,122.6685,1031.7,-2.08,-17.69,yes,yes,yes,300434063382860,SIMB3,Dart,MOSAiC,North
2019-11-01T19:01:55Z,1572634915,2019,19,1,305.793,305.793,85.84003,122.59142,1032.2,-2.08,-18.12,yes,yes,yes,300434063382860,SIMB3,Dart,MOSAiC,North
2019-11-01T23:00:31Z,1572649232,2019,23,0,305.9587,305.9587,85.8471,122.55252,1032.4,-2.08,-19.0,yes,yes,yes,300434063382860,SIMB3,Dart,MOSAiC,North
2019-11-02T03:00:51Z,1572663652,2019,3,0,306.1256,306.1256,85.85122,122.47137,1032.5,-2.08,-21.94,yes,yes,yes,300434063382860,SIMB3,Dart,MOSAiC,North
2019-11-02T07:00:46Z,1572678046,2019,7,0,306.2922,306.2922,85.85782,122.3561,1032.5,-2.08,-25.81,yes,yes,yes,300434063382860,SIMB3,Dart,MOSAiC,North
2019-11-02T11:01:40Z,1572692501,2019,11,1,306.4595,306.4595,85.86637,122.24893,1032.1,-2.08,-22.94,yes,yes,yes,300434063382860,SIMB3,Dart,MOSAiC,North
2019-11-02T15:02:00Z,1572706921,2019,15,2,306.6264,306.6264,85.87186,122.12083,1032.0,-2.08,-21.94,yes,yes,yes,300434063382860,SIMB3,Dart,MOSAiC,North
2019-11-02T19:01:37Z,1572721298,2019,19,1,306.7928,306.7928,85.88013,121.93567,1031.2,-2.08,-19.25,yes,yes,yes,300434063382860,SIMB3,Dart,MOSAiC,North
2019-11-02T23:01:40Z,1572735701,2019,23,1,306.9595,306.9595,85.89008,121.7688,1030.5,-2.08,-15.56,yes,yes,yes,300434063382860,SIMB3,Dart,MOSAiC,North
2019-11-03T03:01:52Z,1572750112,2019,3,1,307.1263,307.1263,85.89632,121.51706,1030.3,-2.08,-21.06,yes,yes,yes,300434063382860,SIMB3,Dart,MOSAiC,North
2019-11-03T07:01:03Z,1572764463,2019,7,1,307.2924,307.2924,85.90431,121.17241,1029.3,-2.08,-20.12,yes,yes,yes,300434063382860,SIMB3,Dart,MOSAiC,North
2019-11-03T11:01:23Z,1572778884,2019,11,1,307.4593,307.4593,85.91448,120.91581,1028.7,-2.08,-18.06,yes,yes,yes,300434063382860,SIMB3,Dart,MOSAiC,North
2019-11-03T15:01:26Z,1572793286,2019,15,1,307.626,307.626,85.92133,120.68266,1028.2,-2.08,-17.38,yes,yes,yes,300434063382860,SIMB3,Dart,MOSAiC,North
2019-11-03T19:02:38Z,1572807758,2019,19,2,307.7935,307.7935,85.92934,120.41191,1027.6,-2.08,-17.88,yes,yes,yes,300434063382860,SIMB3,Dart,MOSAiC,North
2019-11-03T23:01:06Z,1572822066,2019,23,1,307.9591,307.9591,85.93844,120.1701,1027.3,-2.08,-16.69,yes,yes,yes,300434063382860,SIMB3,Dart,MOSAiC,North
2019-11-04T03:01:17Z,1572836478,2019,3,1,308.1259,308.1259,85.94297,119.94111,1027.4,-2.08,-16.12,yes,yes,yes,300434063382860,SIMB3,Dart,MOSAiC,North
2019-11-04T07:01:37Z,1572850898,2019,7,1,308.2928,308.2928,85.94842,119.66534,1027.6,-2.08,-16.19,yes,yes,yes,300434063382860,SIMB3,Dart,MOSAiC,North
2019-11-04T11:01:32Z,1572865292,2019,11,1,308.4594,308.4594,85.95331,119.43542,1027.4,-2.08,-18.12,yes,yes,yes,300434063382860,SIMB3,Dart,MOSAiC,North
2019-11-04T15:01:26Z,1572879686,2019,15,1,308.626,308.626,85.95313,119.22207,1027.3,-2.08,-24.81,yes,yes,yes,300434063382860,SIMB3,Dart,MOSAiC,North
2019-11-04T19:03:12Z,1572894193,2019,19,3,308.7939,308.7939,85.95274,119.0053,1027.1,-2.08,-23.5,yes,yes,yes,300434063382860,SIMB3,Dart,MOSAiC,North
2019-11-04T23:01:14Z,1572908475,2019,23,1,308.9592,308.9592,85.95116,118.80806,1025.7,-2.08,-18.56,yes,yes,yes,300434063382860,SIMB3,Dart,MOSAiC,North
2019-11-05T03:01:00Z,1572922860,2019,3,1,309.1257,309.1257,85.94526,118.59795,1025.6,-2.08,-23.12,yes,yes,yes,300434063382860,SIMB3,Dart,MOSAiC,North
2019-11-05T07:00:54Z,1572937255,2019,7,0,309.2923,309.2923,85.93832,118.37178,1025.6,-2.08,-24.12,yes,yes,yes,300434063382860,SIMB3,Dart,MOSAiC,North
2019-11-05T11:02:24Z,1572951744,2019,11,2,309.46,309.46,85.93366,118.18543,1025.5,-2.08,-23.75,yes,yes,yes,300434063382860,SIMB3,Dart,MOSAiC,North
2019-11-05T19:01:37Z,1572980498,2019,19,1,309.7928,309.7928,85.9223,117.85102,1026.9,-2.08,-21.69,yes,yes,yes,300434063382860,SIMB3,Dart,MOSAiC,North
2019-11-05T23:01:58Z,1572994918,2019,23,1,309.9597,309.9597,85.92047,117.70924,1028.2,-2.08,-24.94,yes,yes,yes,300434063382860,SIMB3,Dart,MOSAiC,North
2019-11-06T03:02:18Z,1573009338,2019,3,2,310.1266,310.1266,85.91711,117.55836,1029.3,-2.08,-26.88,yes,yes,yes,300434063382860,SIMB3,Dart,MOSAiC,North
2019-11-06T07:01:12Z,1573023672,2019,7,1,310.2925,310.2925,85.91682,117.36862,1030.1,-2.08,-22.69,yes,yes,yes,300434063382860,SIMB3,Dart,MOSAiC,North
2019-11-06T11:01:23Z,1573038084,2019,11,1,310.4593,310.4593,85.9187,117.2227,1031.0,-2.08,-17.75,yes,yes,yes,300434063382860,SIMB3,Dart,MOSAiC,North
2019-11-06T23:01:14Z,1573081275,2019,23,1,310.9592,310.9592,85.92054,116.80842,1033.3,-2.08,-20.62,yes,yes,yes,300434063382860,SIMB3,Dart,MOSAiC,North
2019-11-07T03:01:52Z,1573095712,2019,3,1,311.1263,311.1263,85.91918,116.69274,1033.1,-2.08,-22.56,yes,yes,yes,300434063382860,SIMB3,Dart,MOSAiC,North
2019-11-07T07:01:29Z,1573110089,2019,7,1,311.2927,311.2927,85.91757,116.54933,1032.5,-2.08,-22.25,yes,yes,yes,300434063382860,SIMB3,Dart,MOSAiC,North
2019-11-07T11:01:23Z,1573124484,2019,11,1,311.4593,311.4593,85.91706,116.45145,1031.5,-2.08,-22.25,yes,yes,yes,300434063382860,SIMB3,Dart,MOSAiC,North
2019-11-07T15:01:09Z,1573138869,2019,15,1,311.6258,311.6258,85.91448,116.36986,1030.5,-2.08,-25.69,yes,yes,yes,300434063382860,SIMB3,Dart,MOSAiC,North
2019-11-07T19:01:46Z,1573153307,2019,19,1,311.7929,311.7929,85.91204,116.25601,1029.4,-2.08,-26.19,yes,yes,yes,300434063382860,SIMB3,Dart,MOSAiC,North
2019-11-07T23:01:14Z,1573167675,2019,23,1,311.9592,311.9592,85.91039,116.1741,1027.3,-2.08,-21.12,yes,yes,yes,300434063382860,SIMB3,Dart,MOSAiC,North
2019-11-08T03:01:17Z,1573182078,2019,3,1,312.1259,312.1259,85.90492,116.08834,1025.5,-2.08,-21.75,yes,yes,yes,300434063382860,SIMB3,Dart,MOSAiC,North
2019-11-08T07:00:28Z,1573196429,2019,7,0,312.292,312.292,85.89731,115.9741,1023.1,-2.08,-20.44,yes,yes,yes,300434063382860,SIMB3,Dart,MOSAiC,North
2019-11-08T11:02:24Z,1573210944,2019,11,2,312.46,312.46,85.88894,115.8669,1021.3,-2.08,-20.12,yes,yes,yes,300434063382860,SIMB3,Dart,MOSAiC,North
2019-11-08T15:01:09Z,1573225269,2019,15,1,312.6258,312.6258,85.8777,115.7825,1020.5,-2.08,-20.81,yes,yes,yes,300434063382860,SIMB3,Dart,MOSAiC,North
2019-11-08T19:01:29Z,1573239689,2019,19,1,312.7927,312.7927,85.86525,115.71733,1020.1,-2.08,-20.25,yes,yes,yes,300434063382860,SIMB3,Dart,MOSAiC,North
2019-11-08T23:01:58Z,1573254118,2019,23,2,312.9597,312.9597,85.85539,115.70708,1019.9,-2.08,-23.38,yes,yes,yes,300434063382860,SIMB3,Dart,MOSAiC,North
2019-11-09T03:01:52Z,1573268512,2019,3,1,313.1263,313.1263,85.84511,115.71818,1020.7,-2.08,-25.25,yes,yes,yes,300434063382860,SIMB3,Dart,MOSAiC,North
2019-11-09T07:01:12Z,1573282872,2019,7,1,313.2925,313.2925,85.83704,115.71499,1021.3,-2.08,-23.38,yes,yes,yes,300434063382860,SIMB3,Dart,MOSAiC,North
2019-11-09T11:03:24Z,1573297404,2019,11,3,313.4607,313.4607,85.83103,115.76765,1022.0,-2.08,-25.75,yes,yes,yes,300434063382860,SIMB3,Dart,MOSAiC,North
2019-11-09T15:01:35Z,1573311695,2019,15,1,313.6261,313.6261,85.82521,115.8277,1022.7,-2.08,-29.88,yes,yes,yes,300434063382860,SIMB3,Dart,MOSAiC,North
2019-11-09T19:01:46Z,1573326107,2019,19,1,313.7929,313.7929,85.82258,115.87789,1023.5,-2.08,-31.44,yes,yes,yes,300434063382860,SIMB3,Dart,MOSAiC,North
2019-11-09T23:01:14Z,1573340475,2019,23,1,313.9592,313.9592,85.8222,115.95389,1023.9,-2.08,-31.25,yes,yes,yes,300434063382860,SIMB3,Dart,MOSAiC,North
2019-11-10T03:02:00Z,1573354921,2019,3,2,314.1264,314.1264,85.82262,116.02764,1024.5,-2.08,-31.19,yes,yes,yes,300434063382860,SIMB3,Dart,MOSAiC,North
2019-11-10T07:01:12Z,1573369272,2019,7,1,314.2925,314.2925,85.82609,116.07485,1025.3,-2.08,-30.38,yes,yes,yes,300434063382860,SIMB3,Dart,MOSAiC,North
2019-11-10T11:01:23Z,1573383684,2019,11,1,314.4593,314.4593,85.83206,116.15339,1025.4,-2.08,-29.25,yes,yes,yes,300434063382860,SIMB3,Dart,MOSAiC,North
2019-11-10T15:01:00Z,1573398060,2019,15,1,314.6257,314.6257,85.83871,116.22806,1026.3,-2.08,-28.94,yes,yes,yes,300434063382860,SIMB3,Dart,MOSAiC,North
2019-11-10T19:02:38Z,1573412558,2019,19,2,314.7935,314.7935,85.8505,116.2687,1027.0,-2.08,-25.31,yes,yes,yes,300434063382860,SIMB3,Dart,MOSAiC,North
2019-11-10T23:01:14Z,1573426875,2019,23,1,314.9592,314.9592,85.86602,116.34868,1027.3,-2.08,-24.5,yes,yes,yes,300434063382860,SIMB3,Dart,MOSAiC,North
2019-11-11T03:01:17Z,1573441278,2019,3,1,315.1259,315.1259,85.88709,116.43232,1027.2,-2.08,-23.44,yes,yes,yes,300434063382860,SIMB3,Dart,MOSAiC,North
2019-11-11T07:01:20Z,1573455681,2019,7,1,315.2926,315.2926,85.91502,116.52896,1026.8,-2.08,-19.94,yes,yes,yes,300434063382860,SIMB3,Dart,MOSAiC,North
2019-11-11T11:01:14Z,1573470075,2019,11,1,315.4592,315.4592,85.94218,116.68997,1026.2,-2.08,-17.5,yes,yes,yes,300434063382860,SIMB3,Dart,MOSAiC,North
2019-11-11T15:02:26Z,1573484547,2019,15,2,315.6267,315.6267,85.96224,116.87999,1028.0,-2.08,-15.25,yes,yes,yes,300434063382860,SIMB3,Dart,MOSAiC,North
2019-11-11T19:01:29Z,1573498889,2019,19,1,315.7927,315.7927,85.98029,117.07408,1030.3,-2.08,-15.81,yes,yes,yes,300434063382860,SIMB3,Dart,MOSAiC,North
2019-11-11T23:01:49Z,1573513309,2019,23,1,315.9596,315.9596,85.99834,117.28059,1031.3,-2.08,-15.88,yes,yes,yes,300434063382860,SIMB3,Dart,MOSAiC,North
2019-11-12T03:03:01Z,1573527781,2019,3,2,316.1271,316.1271,86.01538,117.41609,1031.9,-2.08,-19.12,yes,yes,yes,300434063382860,SIMB3,Dart,MOSAiC,North
2019-11-12T07:01:20Z,1573542081,2019,7,1,316.2926,316.2926,86.03574,117.4809,1032.3,-2.08,-20.75,yes,yes,yes,300434063382860,SIMB3,Dart,MOSAiC,North
2019-11-12T11:03:41Z,1573556622,2019,11,3,316.4609,316.4609,86.0543,117.6115,1031.8,-2.08,-18.38,yes,yes,yes,300434063382860,SIMB3,Dart,MOSAiC,North
2019-11-12T15:02:35Z,1573570956,2019,15,2,316.6268,316.6268,86.06959,117.7074,1031.7,-2.08,-17.12,yes,yes,yes,300434063382860,SIMB3,Dart,MOSAiC,North
2019-11-12T19:01:46Z,1573585307,2019,19,1,316.7929,316.7929,86.08553,117.76694,1031.5,-2.08,-12.62,yes,yes,yes,300434063382860,SIMB3,Dart,MOSAiC,North
2019-11-12T23:01:23Z,1573599684,2019,23,1,316.9593,316.9593,86.09846,117.87574,1031.6,-2.08,-12.94,yes,yes,yes,300434063382860,SIMB3,Dart,MOSAiC,North
2019-11-13T07:01:20Z,1573628481,2019,7,1,317.2926,317.2926,86.11625,117.89437,1032.1,-2.08,-21.56,yes,yes,yes,300434063382860,SIMB3,Dart,MOSAiC,North
2019-11-13T11:01:06Z,1573642866,2019,11,1,317.4591,317.4591,86.12508,117.90973,1031.9,-2.08,-22.44,yes,yes,yes,300434063382860,SIMB3,Dart,MOSAiC,North
2019-11-13T15:01:00Z,1573657260,2019,15,1,317.6257,317.6257,86.13233,117.95789,1032.1,-2.08,-22.31,yes,yes,yes,300434063382860,SIMB3,Dart,MOSAiC,North
2019-11-13T19:01:12Z,1573671672,2019,19,1,317.7925,317.7925,86.14669,118.00948,1031.9,-2.08,-17.25,yes,yes,yes,300434063382860,SIMB3,Dart,MOSAiC,North
2019-11-13T23:01:14Z,1573686075,2019,23,1,317.9592,317.9592,86.15933,118.08842,1031.2,-2.08,-13.75,yes,yes,yes,300434063382860,SIMB3,Dart,MOSAiC,North
2019-11-14T03:00:51Z,1573700452,2019,3,0,318.1256,318.1256,86.16618,118.16235,1030.8,-2.08,-13.5,yes,yes,yes,300434063382860,SIMB3,Dart,MOSAiC,North
2019-11-14T07:01:37Z,1573714898,2019,7,1,318.2928,318.2928,86.17427,118.17241,1030.1,-2.08,-12.81,yes,yes,yes,300434063382860,SIMB3,Dart,MOSAiC,North
2019-11-14T11:01:06Z,1573729266,2019,11,1,318.4591,318.4591,86.18152,118.22295,1028.4,-2.08,-12.44,yes,yes,yes,300434063382860,SIMB3,Dart,MOSAiC,North
2019-11-14T15:01:35Z,1573743695,2019,15,1,318.6261,318.6261,86.18276,118.24986,1026.5,-2.08,-11.5,yes,yes,yes,300434063382860,SIMB3,Dart,MOSAiC,North
2019-11-14T19:01:46Z,1573758107,2019,19,1,318.7929,318.7929,86.1867,118.23216,1024.4,-2.08,-12.06,yes,yes,yes,300434063382860,SIMB3,Dart,MOSAiC,North
2019-11-14T23:02:32Z,1573772553,2019,23,2,318.9601,318.9601,86.19005,118.2718,1022.3,-2.08,-14.25,yes,yes,yes,300434063382860,SIMB3,Dart,MOSAiC,North
2019-11-15T03:03:18Z,1573786999,2019,3,3,319.1273,319.1273,86.1885,118.33678,1020.8,-2.08,-17.56,yes,yes,yes,300434063382860,SIMB3,Dart,MOSAiC,North
2019-11-15T07:01:20Z,1573801281,2019,7,1,319.2926,319.2926,86.19162,118.41292,1018.3,-2.08,-15.19,yes,yes,yes,300434063382860,SIMB3,Dart,MOSAiC,North
2019-11-15T11:02:58Z,1573815779,2019,11,2,319.4604,319.4604,86.1956,118.63902,1015.2,-2.08,-9.5,yes,yes,yes,300434063382860,SIMB3,Dart,MOSAiC,North
2019-11-15T15:01:17Z,1573830078,2019,15,1,319.6259,319.6259,86.19359,118.9189,1013.2,-2.08,-7.62,yes,yes,yes,300434063382860,SIMB3,Dart,MOSAiC,North
2019-11-15T19:01:29Z,1573844489,2019,19,1,319.7927,319.7927,86.19013,119.24286,1011.5,-2.08,-6.81,yes,yes,yes,300434063382860,SIMB3,Dart,MOSAiC,North
2019-11-15T23:01:14Z,1573858875,2019,23,1,319.9592,319.9592,86.18381,119.67925,1010.6,-2.05,-7.44,yes,yes,yes,300434063382860,SIMB3,Dart,MOSAiC,North
2019-11-16T03:01:43Z,1573873304,2019,3,1,320.1262,320.1262,86.17439,120.21846,1008.6,-2.08,-5.38,yes,yes,yes,300434063382860,SIMB3,Dart,MOSAiC,North
2019-11-16T07:01:20Z,1573887681,2019,7,1,320.2926,320.2926,86.15986,120.86118,1006.7,-2.08,-6.12,yes,yes,yes,300434063382860,SIMB3,Dart,MOSAiC,North
2019-11-16T11:01:06Z,1573902066,2019,11,1,320.4591,320.4591,86.15034,121.57532,1001.5,-2.08,-5.88,yes,yes,yes,300434063382860,SIMB3,Dart,MOSAiC,North
2019-11-16T15:01:17Z,1573916478,2019,15,1,320.6259,320.6259,86.12924,122.1843,997.2,-2.08,-4.81,yes,yes,yes,300434063382860,SIMB3,Dart,MOSAiC,North
2019-11-16T19:01:46Z,1573930907,2019,19,1,320.7929,320.7929,86.09451,122.37115,996.7,-2.08,-12.75,yes,yes,yes,300434063382860,SIMB3,Dart,MOSAiC,North
2019-11-16T23:01:14Z,1573945275,2019,23,1,320.9592,320.9592,86.0601,122.36185,998.8,-2.08,-16.75,yes,yes,yes,300434063382860,SIMB3,Dart,MOSAiC,North
2019-11-17T03:01:09Z,1573959669,2019,3,1,321.1258,321.1258,86.02707,122.51844,997.8,-2.08,-14.19,yes,yes,yes,300434063382860,SIMB3,Dart,MOSAiC,North
2019-11-17T07:01:20Z,1573974081,2019,7,1,321.2926,321.2926,85.99578,122.44008,999.1,-2.05,-13.75,yes,yes,yes,300434063382860,SIMB3,Dart,MOSAiC,North